This demonstration page uses our WeatherBlox Daily Observations layout. Learn more.

Left ArrowRight Arrow

Hourly Observations for September 16, 2015

Temp ( °F °C ) Dew Point ( °F °C ) Humidity (%) Winds ( mph kmh ) Pressure ( in mb ) Visibility ( mi km ) Precip ( " mm )
12:59 am 00:59 Mostly Clear 62 16.7 56 13.3 80 80 Calm 30.36 1028 10 16 0.00 0.00
1:59 am 01:59 Mostly Clear 61 16.1 56 13.3 84 84 Calm 30.35 1028 10 16 0.00 0.00
2:59 am 02:59 Mostly Clear 61 16.1 57 13.9 87 87 Calm 30.35 1028 9 14 0.00 0.00
3:59 am 03:59 Mostly Clear 61 16.1 57 13.9 87 87 Calm 30.34 1028 10 16 0.00 0.00
4:59 am 04:59 Mostly Clear 59 15 56 13.3 90 90 Calm 30.34 1028 8 13 0.00 0.00
5:59 am 05:59 Mostly Clear 60 15.6 57 13.9 90 90 Calm 30.34 1028 9 14 0.00 0.00
6:59 am 06:59 Mostly Sunny 59 15 56 13.3 90 90 Calm 30.35 1028 7 11 0.00 0.00
7:59 am 07:59 Mostly Sunny 66 18.9 62 16.7 87 87 Calm 30.36 1028 8 13 0.00 0.00
8:59 am 08:59 Partly Cloudy 71 21.7 60 15.6 68 68 W 6 9 30.36 1028 10 16 0.00 0.00
9:59 am 09:59 Partly Cloudy 77 25 56 13.3 48 48 VRB 5 7 30.37 1029 10 16 0.00 0.00
10:59 am 10:59 Partly Cloudy 78 25.6 58 14.4 50 50 NW 5 7 30.37 1028 10 16 0.00 0.00
11:59 am 11:59 Partly Cloudy 80 26.7 56 13.3 44 44 NNW 6 9 30.36 1028 10 16 0.00 0.00
12:59 pm 12:59 Partly Cloudy 80 26.7 57 13.9 45 45 NNE 9 15 30.35 1028 10 16 0.00 0.00
1:59 pm 13:59 Partly Cloudy 81 27.2 56 13.3 42 42 ENE 8 13 30.33 1027 10 16 0.00 0.00
2:59 pm 14:59 Mostly Cloudy 80 26.7 54 12.2 41 41 ENE 7 11 30.31 1026 10 16 0.00 0.00
3:59 pm 15:59 Mostly Cloudy 79 26.1 56 13.3 45 45 ENE 7 11 30.29 1026 10 16 0.00 0.00
4:59 pm 16:59 Mostly Cloudy 78 25.6 59 15 52 52 E 6 9 30.28 1025 10 16 0.00 0.00
5:59 pm 17:59 Mostly Cloudy 78 25.6 57 13.9 48 48 E 6 9 30.27 1025 10 16 0.00 0.00
6:59 pm 18:59 Mostly Cloudy 72 22.2 58 14.4 61 61 E 3 6 30.27 1025 10 16 0.00 0.00
7:59 pm 19:59 Mostly Cloudy 67 19.4 59 15 76 76 ESE 3 6 30.26 1025 10 16 0.00 0.00
8:59 pm 20:59 Mostly Cloudy 66 18.9 58 14.4 75 75 SE 3 6 30.26 1025 10 16 0.00 0.00
9:59 pm 21:59 Mostly Cloudy 65 18.3 59 15 81 81 Calm 30.27 1025 10 16 0.00 0.00
10:59 pm 22:59 Mostly Cloudy 65 18.3 59 15 81 81 Calm 30.26 1025 10 16 0.00 0.00
11:59 pm 23:59 Cloudy 63 17.2 59 15 87 87 S 3 6 30.25 1025 9 14 0.00 0.00

Powered by AerisWeather